Overview Statistics Trail Chart Weather Telemetry Raw packets
 

This is the latest recevied weather packets stored in our database for station/object VK4AB-13. If no packets are shown the sender has not sent any weather packets the latest 10 day(s).

<< 1 2 3 4 5 6 7 >>
Time Temp. Humidity Pressure Rain* Wind** Luminosity Snow
1788580971 31.67° C 37% 1014.7 hPa 0 mm - 642 W/m² -
1788580671 31.67° C 36% 1014.9 hPa 0 mm - 650 W/m² -
1788580371 31.67° C 37% 1014.9 hPa 0 mm - 661 W/m² -
1788580071 31.11° C 37% 1015.1 hPa 0 mm - 670 W/m² -
1788579771 31.67° C 36% 1015.2 hPa 0 mm - 682 W/m² -
1788579471 31.67° C 36% 1015.2 hPa 0 mm - 691 W/m² -
1788579171 31.67° C 36% 1015.4 hPa 0 mm - 701 W/m² -
1788578871 31.67° C 37% 1015.4 hPa 0 mm - 710 W/m² -
1788578571 31.67° C 38% 1015.5 hPa 0 mm - 714 W/m² -
1788578271 31.11° C 39% 1015.7 hPa 0 mm - 724 W/m² -
1788577971 31.11° C 39% 1015.8 hPa 0 mm - 731 W/m² -
1788577671 31.11° C 40% 1015.9 hPa 0 mm - 737 W/m² -
1788577371 30.56° C 41% 1016 hPa 0 mm - 742 W/m² -
1788577071 30.56° C 42% 1016.2 hPa 0 mm - 752 W/m² -
1788576772 30.56° C 42% 1016.3 hPa 0 mm - 752 W/m² -
1788576472 30° C 45% 1016.4 hPa 0 mm - 763 W/m² -
1788576172 30° C 46% 1016.6 hPa 0 mm - 772 W/m² -
1788575872 30° C 45% 1016.7 hPa 0 mm - 772 W/m² -
1788575571 30.56° C 46% 1016.8 hPa 0 mm - 768 W/m² -
1788575271 30° C 48% 1016.9 hPa 0 mm - 773 W/m² -
1788574971 30° C 48% 1017.1 hPa 0 mm - 775 W/m² -
1788574672 30° C 48% 1017.3 hPa 0 mm - 782 W/m² -
1788574372 29.44° C 47% 1017.4 hPa 0 mm - 780 W/m² -
1788574072 30° C 46% 1017.5 hPa 0 mm - 791 W/m² -
1788573815 29.44° C 49% 1017.6 hPa 0 mm - 791 W/m² -

* Rain latest hour (hover to see other rain measurements)
** Current wind speed in m/s (hover to see current wind gust speed)